Weather History for Conway, SC

Change the Weather History Date:

Friday, May 24, 2013

  Actual Average Record
Temperature  
Mean Temperature 66 °F -  
Max Temperature 78 °F 82 °F 91 °F (2011)
Min Temperature 51 °F 62 °F 51 °F (2013)
Growing Degree Days 16 (Base 50)    
Moisture  
Dew Point 58 °F    
Average Humidity 73    
Maximum Humidity 100    
Minimum Humidity 34    
Precipitation  
Precipitation 0.01 in - - ()
Sea Level Pressure  
Sea Level Pressure 29.96 in    
Wind  
Wind Speed 3 mph (NW)    
Max Wind Speed 9 mph    
Max Gust Speed 22 mph    
Visibility 6 miles    
Events      
Averages and records for this station are not official NWS values.
T = Trace of Precipitation, MM = Missing Value Source: NWS Daily Summary

Daily Weather History Graph

Daily Weather History Graph

Search for Another Location

Airport:

Trip Planner

Search our weather history database for the weather conditions in past years. The results will help you decide how hot, cold, wet, or windy it might be!

Date:

Astronomy

May. 24, 2013 Rise Set
Actual Time 6:09 AM EDT 8:17 PM EDT
Civil Twilight 5:41 AM EDT 8:45 PM EDT
Nautical Twilight 5:07 AM EDT 9:19 PM EDT
Astronomical Twilight 4:30 AM EDT 9:57 PM EDT
Moon 7:58 PM EDT (5/24) 5:37 AM EDT (5/24)
Length of Visible Light 15h 03m
Length of Day
14h 07m
Full, 100% of the Moon is Illuminated
May 24
Full
May 25
Full
May 31
Last Quarter
Jun 8
New
Jun 16
First Quarter

Hourly Weather History & Observations

Time (EDT) Temp. Dew Point Humidity Pressure Visibility Wind Dir Wind Speed Gust Speed Precip Events Conditions
12:15 AM 64.4 °F 64.4 °F 100% 29.87 in 7.0 mi SSW 4.6 mph - N/A   Clear
12:35 AM 64.4 °F 64.4 °F 100% 29.87 in 5.0 mi Calm Calm - N/A   Clear
12:55 AM 66.2 °F 66.2 °F 100% 29.86 in 5.0 mi Calm Calm - N/A   Clear
1:15 AM 66.2 °F 66.2 °F 100% 29.86 in 5.0 mi SW 3.5 mph - N/A   Clear
1:35 AM 66.2 °F 66.2 °F 100% 29.85 in 7.0 mi Calm Calm - N/A   Clear
1:55 AM 66.2 °F 66.2 °F 100% 29.84 in 7.0 mi Calm Calm - N/A   Clear
2:15 AM 68.0 °F 68.0 °F 100% 29.83 in 7.0 mi SW 3.5 mph - N/A   Clear
2:35 AM 66.2 °F 66.2 °F 100% 29.83 in 7.0 mi SW 3.5 mph - N/A   Clear
2:55 AM 68.0 °F 68.0 °F 100% 29.83 in 7.0 mi SW 3.5 mph - N/A   Clear
3:15 AM 66.2 °F 66.2 °F 100% 29.83 in 5.0 mi SW 3.5 mph - N/A   Clear
3:35 AM 68.0 °F 68.0 °F 100% 29.83 in 5.0 mi Calm Calm - N/A   Clear
3:55 AM 66.2 °F 66.2 °F 100% 29.83 in 7.0 mi Calm Calm - N/A   Clear
4:15 AM 66.2 °F 66.2 °F 100% 29.83 in 7.0 mi Calm Calm - N/A   Clear
4:35 AM 64.4 °F 64.4 °F 100% 29.84 in 5.0 mi Calm Calm - N/A   Clear
4:55 AM 64.4 °F 64.4 °F 100% 29.84 in 2.5 mi Calm Calm - N/A   Clear
5:15 AM 64.4 °F 64.4 °F 100% 29.84 in 4.0 mi Calm Calm - N/A   Clear
5:35 AM 62.6 °F 62.6 °F 100% 29.84 in 3.0 mi Calm Calm - N/A   Clear
5:55 AM 64.4 °F 64.4 °F 100% 29.86 in 5.0 mi Calm Calm - N/A   Mostly Cloudy
6:15 AM 64.4 °F 64.4 °F 100% 29.87 in 5.0 mi Calm Calm - N/A   Scattered Clouds
6:35 AM 64.4 °F 64.4 °F 100% 29.89 in 3.0 mi West 3.5 mph - 0.01 in   Scattered Clouds
6:55 AM 64.4 °F 64.4 °F 100% 29.89 in 4.0 mi Calm Calm - 0.01 in   Clear
7:15 AM 64.4 °F 64.4 °F 100% 29.90 in 3.0 mi West 3.5 mph - N/A   Clear
7:35 AM 66.2 °F 66.2 °F 100% 29.90 in 7.0 mi Calm Calm - N/A   Clear
7:55 AM 68.0 °F 68.0 °F 100% 29.91 in 5.0 mi WNW 4.6 mph - N/A   Scattered Clouds
8:15 AM 68.0 °F 68.0 °F 100% 29.91 in 7.0 mi WNW 5.8 mph - N/A   Scattered Clouds
8:35 AM 68.0 °F 68.0 °F 100% 29.91 in 7.0 mi NNW 4.6 mph - N/A   Scattered Clouds
8:55 AM 69.8 °F 66.2 °F 88% 29.92 in 7.0 mi NW 3.5 mph - N/A   Mostly Cloudy
9:15 AM 69.8 °F 64.4 °F 83% 29.93 in 7.0 mi NNW 4.6 mph - N/A   Scattered Clouds
9:35 AM 71.6 °F 62.6 °F 73% 29.93 in 7.0 mi NW 3.5 mph - N/A   Scattered Clouds
9:55 AM 71.6 °F 62.6 °F 73% 29.94 in 7.0 mi NW 3.5 mph - N/A   Mostly Cloudy
10:15 AM 73.4 °F 62.6 °F 69% 29.93 in 5.0 mi NW 4.6 mph - N/A   Haze
10:35 AM 73.4 °F 62.6 °F 69% 29.94 in 7.0 mi NW 4.6 mph - N/A   Scattered Clouds
10:55 AM 73.4 °F 60.8 °F 65% 29.94 in 7.0 mi WNW 5.8 mph - N/A   Scattered Clouds
11:15 AM 75.2 °F 60.8 °F 61% 29.95 in 7.0 mi NW 5.8 mph - N/A   Mostly Cloudy
11:35 AM 77.0 °F 60.8 °F 57% 29.96 in 7.0 mi WNW 5.8 mph - N/A   Mostly Cloudy
11:55 AM 77.0 °F 59.0 °F 54% 29.96 in 7.0 mi WNW 9.2 mph - N/A   Mostly Cloudy
12:15 PM 77.0 °F 59.0 °F 54% 29.96 in 7.0 mi WNW 5.8 mph - N/A   Scattered Clouds
12:35 PM 77.0 °F 59.0 °F 54% 29.96 in 7.0 mi WNW 5.8 mph - N/A   Scattered Clouds
12:55 PM 77.0 °F 59.0 °F 54% 29.97 in 7.0 mi NNW 5.8 mph - N/A   Mostly Cloudy
1:15 PM 77.0 °F 57.2 °F 50% 29.96 in 7.0 mi NW 4.6 mph - N/A   Mostly Cloudy
1:35 PM 78.8 °F 59.0 °F 51% 29.96 in 7.0 mi NNW 8.1 mph - N/A   Mostly Cloudy
1:55 PM 78.8 °F 59.0 °F 51% 29.97 in 7.0 mi North 9.2 mph - N/A   Mostly Cloudy
2:15 PM 78.8 °F 59.0 °F 51% 29.97 in 7.0 mi NW 6.9 mph - N/A   Mostly Cloudy
2:35 PM 78.8 °F 57.2 °F 47% 29.97 in 7.0 mi North 8.1 mph - N/A   Scattered Clouds
2:55 PM 78.8 °F 59.0 °F 51% 29.97 in 7.0 mi NNW 9.2 mph - N/A   Mostly Cloudy
3:15 PM 78.8 °F 55.4 °F 44% 29.98 in 7.0 mi NW 8.1 mph - N/A   Mostly Cloudy
3:35 PM 78.8 °F 55.4 °F 44% 29.98 in 5.0 mi NW 9.2 mph 17.3 mph N/A   Haze
3:55 PM 78.8 °F 57.2 °F 47% 29.99 in 7.0 mi NNW 5.8 mph 20.7 mph N/A   Scattered Clouds
4:15 PM 77.0 °F 55.4 °F 47% 29.98 in 5.0 mi North 9.2 mph 17.3 mph N/A   Haze
4:35 PM 78.8 °F 50.0 °F 36% 29.99 in 7.0 mi WNW 5.8 mph - N/A   Scattered Clouds
4:55 PM 77.0 °F 50.0 °F 39% 30.00 in 7.0 mi North 6.9 mph - N/A   Clear
5:15 PM 77.0 °F 46.4 °F 34% 30.01 in 7.0 mi NNW 8.1 mph 21.9 mph N/A   Clear
5:35 PM 77.0 °F 46.4 °F 34% 30.02 in 5.0 mi NW 3.5 mph - N/A   Haze
5:55 PM 77.0 °F 48.2 °F 36% 30.02 in 7.0 mi West 6.9 mph - N/A   Clear
6:15 PM 75.2 °F 50.0 °F 41% 30.03 in 7.0 mi North 6.9 mph - N/A   Clear
6:35 PM 73.4 °F 48.2 °F 41% 30.03 in 7.0 mi North 8.1 mph - N/A   Clear
6:55 PM 73.4 °F 46.4 °F 38% 30.04 in 5.0 mi North 5.8 mph - N/A   Haze
7:15 PM 71.6 °F 46.4 °F 41% 30.05 in 7.0 mi Calm Calm - N/A   Clear
7:35 PM 71.6 °F 46.4 °F 41% 30.07 in 7.0 mi North 4.6 mph - N/A   Clear
7:55 PM 69.8 °F 46.4 °F 43% 30.08 in 7.0 mi North 4.6 mph - N/A   Clear
8:15 PM 68.0 °F 42.8 °F 40% 30.09 in 7.0 mi Calm Calm - N/A   Clear
8:35 PM 64.4 °F 46.4 °F 52% 30.10 in 7.0 mi Calm Calm - N/A   Clear
8:55 PM 62.6 °F 46.4 °F 55% 30.11 in 7.0 mi Calm Calm - N/A   Clear
9:15 PM 60.8 °F 50.0 °F 68% 30.12 in 7.0 mi Calm Calm - N/A   Clear
9:35 PM 59.0 °F 51.8 °F 77% 30.13 in 7.0 mi Calm Calm - N/A   Clear
9:55 PM 57.2 °F 51.8 °F 82% 30.14 in 7.0 mi Calm Calm - N/A   Clear
10:15 PM 55.4 °F 50.0 °F 82% 30.15 in 7.0 mi Calm Calm - N/A   Clear
10:35 PM 55.4 °F 50.0 °F 82% 30.16 in 7.0 mi Calm Calm - N/A   Clear
10:55 PM 55.4 °F 51.8 °F 88% 30.17 in 7.0 mi Calm Calm - N/A   Clear
11:15 PM 53.6 °F 53.6 °F 100% 30.17 in 7.0 mi Calm Calm - N/A   Clear
11:35 PM 53.6 °F 51.8 °F 94% 30.17 in 7.0 mi Calm Calm - N/A   Clear
11:55 PM 51.8 °F 51.8 °F 100% 30.18 in 7.0 mi Calm Calm - N/A   Clear